Location: Beneden-Haastrecht
(52.0012°N, 4.7557°E)
Time: 02:54:17
(UTC+00:00)

GENESIS II - Pass Details

Date: 24 October 2020
Orbit: 490 x 536 km, 64.5° (Epoch: 27 November)

Event Time Altitude Azimuth Distance (km) Brightness Sun altitude
Rises 17:58:47 0° 206° (SSW) 2,674 8.2 -14.7°
Reaches altitude 10° 18:01:00 10° 200° (SSW) 1,790 7.2 -15.0°
Maximum altitude 18:04:53 49° 126° (SE) 704 4.5 -15.6°
Enters shadow 18:06:34 29° 68° (ENE) 1,007 5.1 -15.9°
